UR7D-12 Weather Reports


time (UTC)temp
C
wind
direction
speed
KPH
gust
KPH
rain 1hr
cm
rain 24hr
cm
rain mn
cm
humidity
%
barometer
mb
20260503195258 15 96 0.0 1.6 0.00 0.00 0.00 50 992.4
20260503194258 15 96 0.0 0.0 0.00 0.00 0.00 49 992.5
20260503193259 15 96 1.6 1.6 0.00 0.00 0.00 50 992.5
20260503192258 15 95 0.0 1.6 0.00 0.00 0.00 54 992.6
20260503191757 15 160 0.0 0.0 0.00 0.00 0.00 54 992.6
20260503191257 15 160 0.0 1.6 0.00 0.00 0.00 53 992.5
20260503190256 16 223 0.0 1.6 0.00 0.00 0.00 49 992.5
20260503185756 16 223 0.0 1.6 0.00 0.00 0.00 51 992.5
20260503185258 15 238 0.0 1.6 0.00 0.00 0.00 51 992.4
20260503184756 15 288 0.0 0.0 0.00 0.00 0.00 50 992.4
20260503183754 15 288 0.0 0.0 0.00 0.00 0.00 50 992.5
20260503183255 15 288 0.0 0.0 0.00 0.00 0.00 51 992.4
20260503182256 16 288 0.0 0.0 0.00 0.00 0.00 48 992.3
20260503181754 16 288 0.0 0.0 0.00 0.00 0.00 47 992.2
20260503180752 17 288 0.0 0.0 0.00 0.00 0.00 46 992.1
20260503180253 17 288 0.0 0.0 0.00 0.00 0.00 45 992.0
20260503174751 17 288 1.6 1.6 0.00 0.00 0.00 45 992.1
20260503174252 18 288 1.6 3.2 0.00 0.00 0.00 44 992.1
20260503173251 18 288 3.2 3.2 0.00 0.00 0.00 44 992.1
20260503172751 18 286 3.2 3.2 0.00 0.00 0.00 44 992.0
20260503172251 18 297 4.8 4.8 0.00 0.00 0.00 44 992.0
20260503171751 18 297 4.8 4.8 0.00 0.00 0.00 44 992.2
20260503170750 19 297 4.8 8.0 0.00 0.00 0.00 42 992.0
20260503150744 20 288 9.7 17.7 0.00 0.00 0.00 39 992.4
20260503150243 20 286 9.7 14.5 0.00 0.00 0.00 40 992.5
20260503140240 20 300 9.7 17.7 0.00 0.00 0.00 41 992.9
20260503131237 20 310 8.0 14.5 0.00 0.00 0.00 40 993.7
20260503130737 20 305 6.4 14.5 0.00 0.00 0.00 39 993.8
20260503130236 20 203 6.4 16.1 0.00 0.00 0.00 40 993.9
20260503110731 17 328 8.0 14.5 0.00 0.00 0.00 43 995.1
20260503110231 17 343 9.7 16.1 0.00 0.00 0.00 43 995.2
20260503080218 14 271 4.8 9.7 0.00 0.00 0.00 50 997.0
20260503072720 13 149 3.2 8.0 0.00 0.00 0.00 52 997.2
20260503072217 12 288 3.2 11.3 0.00 0.00 0.00 51 997.2
20260503071716 12 235 3.2 9.7 0.00 0.00 0.00 53 997.2
20260503071217 12 212 3.2 6.4 0.00 0.00 0.00 55 997.2
20260503070716 12 228 3.2 4.8 0.00 0.00 0.00 55 997.2
20260503070215 12 179 3.2 8.0 0.00 0.00 0.00 56 997.2
20260503054710 9 89 6.4 12.9 0.00 0.00 0.00 66 997.1
20260503053711 8 86 8.0 11.3 0.00 0.00 0.00 69 997.1
20260503053211 8 93 9.7 12.9 0.00 0.00 0.00 68 997.1
20260503052711 8 70 11.3 16.1 0.00 0.00 0.00 69 997.0
20260503051709 7 91 11.3 14.5 0.00 0.00 0.00 70 996.9
20260503051209 7 102 11.3 14.5 0.00 0.00 0.00 70 996.8
20260503045207 7 86 9.7 16.1 0.00 0.00 0.00 72 996.9
20260503044707 7 92 9.7 12.9 0.00 0.00 0.00 72 996.9
20260503044208 6 94 11.3 16.1 0.00 0.00 0.00 72 996.9
20260503043706 6 86 11.3 16.1 0.00 0.00 0.00 73 997.0
20260503043208 6 105 11.3 16.1 0.00 0.00 0.00 73 996.8
20260503042207 6 87 9.7 14.5 0.00 0.00 0.00 73 996.8
20260503040706 6 98 11.3 14.5 0.00 0.00 0.00 74 996.7
20260503040204 6 86 11.3 14.5 0.00 0.00 0.00 74 996.6
20260503035704 6 96 11.3 17.7 0.00 0.00 0.00 74 996.6
20260503034704 5 105 9.7 14.5 0.00 0.00 0.00 74 996.5
20260503034203 5 94 8.0 11.3 0.00 0.00 0.00 74 996.5
20260503033706 5 93 6.4 11.3 0.00 0.00 0.00 75 996.5
20260503032703 5 97 4.8 6.4 0.00 0.00 0.00 75 996.4
20260503031705 5 108 8.0 9.7 0.00 0.00 0.00 75 996.3
20260503031202 5 97 9.7 11.3 0.00 0.00 0.00 74 996.2
20260503030703 5 95 9.7 12.9 0.00 0.00 0.00 73 996.2
20260503030206 6 87 9.7 12.9 0.00 0.00 0.00 72 996.0
20260503025701 6 86 8.0 11.3 0.00 0.00 0.00 70 995.9
20260503025201 6 89 4.8 8.0 0.00 0.00 0.00 70 995.8
20260503024700 6 96 4.8 9.7 0.00 0.00 0.00 68 995.7
20260503024201 6 101 3.2 8.0 0.00 0.00 0.00 68 995.6
20260503023700 6 113 4.8 6.4 0.00 0.00 0.00 70 995.7
20260503022702 6 84 9.7 11.3 0.00 0.00 0.00 70 995.6
20260503022202 6 70 9.7 12.9 0.00 0.00 0.00 71 995.6
20260503021658 6 83 8.0 12.9 0.00 0.00 0.00 70 995.8
20260503020659 6 115 3.2 9.7 0.00 0.00 0.00 69 995.7
20260503020159 6 141 1.6 3.2 0.00 0.00 0.00 68 995.6
20260503015657 7 101 4.8 3.2 0.00 0.00 0.00 68 995.6
20260503014658 7 88 4.8 9.7 0.00 0.00 0.00 67 995.7
20260503014158 6 97 4.8 4.8 0.00 0.00 0.00 68 995.8
20260503013156 6 105 6.4 8.0 0.00 0.00 0.00 68 995.9
20260503012656 6 112 6.4 8.0 0.00 0.00 0.00 69 995.9
20260503012158 6 100 6.4 9.7 0.00 0.00 0.00 70 995.9
20260503011658 6 98 6.4 9.7 0.00 0.00 0.00 70 995.9
20260503010655 6 91 6.4 9.7 0.00 0.00 0.00 68 995.9
20260503010154 6 103 8.0 9.7 0.00 0.00 0.00 68 995.9
20260503005657 6 113 8.0 9.7 0.00 0.00 0.00 68 995.9
20260503005154 7 91 8.0 9.7 0.00 0.00 0.00 67 995.9
20260503004655 7 89 8.0 9.7 0.00 0.00 0.00 65 995.9
20260503004154 7 117 6.4 9.7 0.00 0.00 0.00 65 995.9
20260503003153 7 115 3.2 4.8 0.00 0.00 0.00 66 995.9
20260503002652 7 89 3.2 4.8 0.00 0.00 0.00 65 995.9
20260503001652 7 158 0.0 0.0 0.00 0.00 0.00 66 995.9
20260503001151 7 8 0.0 0.0 0.00 0.00 0.00 65 995.9
20260503000151 7 92 1.6 0.0 0.00 0.00 0.00 64 995.8
20260502235651 8 92 3.2 3.2 0.00 0.00 0.00 63 995.8
20260502235152 8 92 1.6 4.8 0.00 0.00 0.00 63 995.7
20260502233651 8 93 6.4 8.0 0.00 0.00 0.00 61 995.9
20260502233149 8 96 6.4 9.7 0.00 0.00 0.00 60 995.9
20260502232149 9 116 4.8 4.8 0.00 0.00 0.00 59 995.8
20260502231648 10 117 6.4 9.7 0.00 0.00 0.00 57 995.8
20260502230649 10 113 8.0 11.3 0.00 0.00 0.00 56 995.8
20260502230148 10 92 6.4 11.3 0.00 0.00 0.00 56 995.7
20260502225647 10 89 6.4 8.0 0.00 0.00 0.00 56 995.6
20260502225147 10 96 6.4 9.7 0.00 0.00 0.00 56 995.7
20260502224647 10 100 6.4 9.7 0.00 0.00 0.00 55 995.7
20260502224147 10 100 6.4 8.0 0.00 0.00 0.00 55 995.9
20260502223647 10 81 6.4 9.7 0.00 0.00 0.00 55 995.9
20260502223146 10 86 6.4 9.7 0.00 0.00 0.00 54 995.9
20260502222646 10 82 8.0 9.7 0.00 0.00 0.00 54 995.9
20260502221646 11 80 11.3 14.5 0.00 0.00 0.00 52 995.9
20260502221148 11 79 11.3 16.1 0.00 0.00 0.00 51 995.9
20260502215645 11 75 12.9 17.7 0.00 0.00 0.00 51 995.8
20260502215144 11 80 14.5 17.7 0.00 0.00 0.00 51 995.8
20260502214645 12 94 14.5 19.3 0.00 0.00 0.00 49 995.9
20260502214144 12 92 12.9 17.7 0.00 0.00 0.00 50 995.8
20260502213643 11 96 12.9 17.7 0.00 0.00 0.00 51 995.7
20260502213146 11 85 11.3 17.7 0.00 0.00 0.00 51 995.8
20260502212143 11 84 12.9 16.1 0.00 0.00 0.00 51 995.7
20260502211643 11 80 12.9 19.3 0.00 0.00 0.00 52 995.7
20260502211142 11 85 12.9 19.3 0.00 0.00 0.00 53 995.8
20260502210642 11 82 11.3 17.7 0.00 0.00 0.00 53 995.7
20260502210143 11 75 9.7 12.9 0.00 0.00 0.00 53 995.8
20260502205641 11 83 9.7 17.7 0.00 0.00 0.00 53 995.8
20260502205141 11 56 9.7 11.3 0.00 0.00 0.00 52 995.8
20260502204642 11 76 9.7 11.3 0.00 0.00 0.00 52 995.8
20260502204140 11 77 9.7 12.9 0.00 0.00 0.00 52 995.8
20260502203642 11 62 9.7 12.9 0.00 0.00 0.00 51 995.8
20260502203141 11 72 11.3 14.5 0.00 0.00 0.00 51 995.7
20260502202639 11 82 9.7 16.1 0.00 0.00 0.00 51 995.7
20260502202140 11 93 9.7 12.9 0.00 0.00 0.00 52 995.9
20260502201639 11 86 9.7 11.3 0.00 0.00 0.00 52 995.8
20260502201139 11 98 9.7 16.1 0.00 0.00 0.00 51 995.8
20260502200139 12 80 9.7 14.5 0.00 0.00 0.00 51 995.7
20260502195638 12 84 9.7 12.9 0.00 0.00 0.00 51 995.8